Year,Month,Day,Hour,Minute,Value (Times are PST for windspeed in km/hr)
2019,02,10,00,00,17.20
2019,02,10,00,01,9.90
2019,02,10,00,02,6.00
2019,02,10,00,03,5.70
2019,02,10,00,04,9.90
2019,02,10,00,05,10.80
2019,02,10,00,06,6.60
2019,02,10,00,07,3.90
2019,02,10,00,08,13.00
2019,02,10,00,09,15.00
2019,02,10,00,10,14.80
2019,02,10,00,11,19.60
2019,02,10,00,12,11.20
2019,02,10,00,13,4.50
2019,02,10,00,14,9.40
2019,02,10,00,15,7.90
2019,02,10,00,16,14.80
2019,02,10,00,17,14.30
2019,02,10,00,18,12.80
2019,02,10,00,19,19.90
2019,02,10,00,20,15.60
2019,02,10,00,21,15.70
2019,02,10,00,22,22.00
2019,02,10,00,23,22.10
2019,02,10,00,24,19.00
2019,02,10,00,25,16.40
2019,02,10,00,26,19.70
2019,02,10,00,27,27.00
2019,02,10,00,28,20.00
2019,02,10,00,29,23.20
2019,02,10,00,30,16.00
2019,02,10,00,31,15.70
2019,02,10,00,32,20.70
2019,02,10,00,33,20.60
2019,02,10,00,34,11.10
2019,02,10,00,35,15.20
2019,02,10,00,36,19.20
2019,02,10,00,37,21.50
2019,02,10,00,38,12.20
2019,02,10,00,39,16.20
2019,02,10,00,40,12.60
2019,02,10,00,41,16.40
2019,02,10,00,42,19.20
2019,02,10,00,43,12.90
2019,02,10,00,44,22.60
2019,02,10,00,45,18.10
2019,02,10,00,46,19.30
2019,02,10,00,47,18.40
2019,02,10,00,48,22.10
2019,02,10,00,49,20.40
2019,02,10,00,50,19.00
2019,02,10,00,51,11.80
2019,02,10,00,52,20.40
2019,02,10,00,53,22.80
2019,02,10,00,54,22.10
2019,02,10,00,55,16.00
2019,02,10,00,56,19.40
2019,02,10,00,57,21.50
2019,02,10,00,58,20.60
2019,02,10,00,59,19.70
2019,02,10,01,00,18.50
2019,02,10,01,01,18.60
2019,02,10,01,02,13.40
2019,02,10,01,03,19.50
2019,02,10,01,04,19.00
2019,02,10,01,05,18.40
2019,02,10,01,06,20.40
2019,02,10,01,07,23.30
2019,02,10,01,08,24.10
2019,02,10,01,09,19.10
2019,02,10,01,10,15.10
2019,02,10,01,11,23.10
2019,02,10,01,12,24.60
2019,02,10,01,13,21.60
2019,02,10,01,14,22.10
2019,02,10,01,15,14.90
2019,02,10,01,16,18.60
2019,02,10,01,17,24.70
2019,02,10,01,18,25.30
2019,02,10,01,19,20.60
2019,02,10,01,20,16.10
2019,02,10,01,21,18.80
2019,02,10,01,22,20.30
2019,02,10,01,23,19.60
2019,02,10,01,24,25.50
2019,02,10,01,25,23.40
2019,02,10,01,26,20.90
2019,02,10,01,27,12.40
2019,02,10,01,28,16.70
2019,02,10,01,29,23.40
2019,02,10,01,30,18.00
2019,02,10,01,31,13.00
2019,02,10,01,32,12.00
2019,02,10,01,33,18.00
2019,02,10,01,34,27.30
2019,02,10,01,35,20.40
2019,02,10,01,36,20.00
2019,02,10,01,37,20.50
2019,02,10,01,38,21.10
2019,02,10,01,39,21.70
2019,02,10,01,40,18.60
2019,02,10,01,41,18.70
2019,02,10,01,42,20.20
2019,02,10,01,43,17.90
2019,02,10,01,44,12.20
2019,02,10,01,45,16.30
2019,02,10,01,46,24.20
2019,02,10,01,47,22.10
2019,02,10,01,48,22.70
2019,02,10,01,49,23.50
2019,02,10,01,50,19.40
2019,02,10,01,51,20.10
2019,02,10,01,52,19.20
2019,02,10,01,53,22.40
2019,02,10,01,54,16.90
2019,02,10,01,55,16.40
2019,02,10,01,56,19.40
2019,02,10,01,57,21.50
2019,02,10,01,58,15.20
2019,02,10,01,59,23.50
2019,02,10,02,00,22.50
2019,02,10,02,01,17.80
2019,02,10,02,02,18.30
2019,02,10,02,03,11.00
2019,02,10,02,04,21.60
2019,02,10,02,05,19.20
2019,02,10,02,06,15.90
2019,02,10,02,07,17.90
2019,02,10,02,08,19.70
2019,02,10,02,09,22.20
2019,02,10,02,10,21.80
2019,02,10,02,11,18.20
2019,02,10,02,12,11.50
2019,02,10,02,13,10.00
2019,02,10,02,14,6.10
2019,02,10,02,15,8.90
2019,02,10,02,16,16.90
2019,02,10,02,17,14.30
2019,02,10,02,18,19.10
2019,02,10,02,19,15.50
2019,02,10,02,20,15.60
2019,02,10,02,21,18.10
2019,02,10,02,22,18.80
2019,02,10,02,23,16.30
2019,02,10,02,24,14.90
2019,02,10,02,25,22.40
2019,02,10,02,26,17.60
2019,02,10,02,27,7.40
2019,02,10,02,28,12.40
2019,02,10,02,29,10.40
2019,02,10,02,30,20.20
2019,02,10,02,31,18.30
2019,02,10,02,32,19.80
2019,02,10,02,33,12.80
2019,02,10,02,34,12.40
2019,02,10,02,35,14.60
2019,02,10,02,36,10.10
2019,02,10,02,37,17.90
2019,02,10,02,38,13.40
2019,02,10,02,39,10.60
2019,02,10,02,40,7.00
2019,02,10,02,41,5.90
2019,02,10,02,42,5.10
2019,02,10,02,43,5.40
2019,02,10,02,44,12.00
2019,02,10,02,45,16.50
2019,02,10,02,46,10.60
2019,02,10,02,47,8.00
2019,02,10,02,48,13.50
2019,02,10,02,49,13.30
2019,02,10,02,50,9.10
2019,02,10,02,51,2.40
2019,02,10,02,52,11.60
2019,02,10,02,53,15.70
2019,02,10,02,54,6.90
2019,02,10,02,55,12.10
2019,02,10,02,56,16.90
2019,02,10,02,57,10.10
2019,02,10,02,58,7.40
2019,02,10,02,59,9.80
2019,02,10,03,00,10.70
2019,02,10,03,01,8.30
2019,02,10,03,02,14.00
2019,02,10,03,03,15.50
2019,02,10,03,04,9.70
2019,02,10,03,05,14.30
2019,02,10,03,06,12.20
2019,02,10,03,07,9.70
2019,02,10,03,08,14.60
2019,02,10,03,09,11.30
2019,02,10,03,10,12.60
2019,02,10,03,11,10.10
2019,02,10,03,12,5.90
2019,02,10,03,13,11.50
2019,02,10,03,14,11.80
2019,02,10,03,15,9.50
2019,02,10,03,16,6.10
2019,02,10,03,17,8.70
2019,02,10,03,18,7.10
2019,02,10,03,19,6.60
2019,02,10,03,20,8.30
2019,02,10,03,21,9.50
2019,02,10,03,22,5.10
2019,02,10,03,23,5.20
2019,02,10,03,24,7.40
2019,02,10,03,25,2.90
2019,02,10,03,26,3.20
2019,02,10,03,27,3.10
2019,02,10,03,28,6.30
2019,02,10,03,29,3.10
2019,02,10,03,30,0.00
2019,02,10,03,31,0.00
2019,02,10,03,32,0.00
2019,02,10,03,33,1.50
2019,02,10,03,34,0.90
2019,02,10,03,35,1.00
2019,02,10,03,36,10.90
2019,02,10,03,37,9.60
2019,02,10,03,38,3.40
2019,02,10,03,39,2.20
2019,02,10,03,40,5.40
2019,02,10,03,41,8.40
2019,02,10,03,42,4.30
2019,02,10,03,43,5.40
2019,02,10,03,44,0.90
2019,02,10,03,45,6.80
2019,02,10,03,46,0.50
2019,02,10,03,47,0.60
2019,02,10,03,48,0.20
2019,02,10,03,49,1.30
2019,02,10,03,50,1.60
2019,02,10,03,51,3.80
2019,02,10,03,52,4.80
2019,02,10,03,53,9.20
2019,02,10,03,54,5.30
2019,02,10,03,55,4.60
2019,02,10,03,56,0.50
2019,02,10,03,57,7.70
2019,02,10,03,58,4.60
2019,02,10,03,59,3.90
2019,02,10,04,00,15.40
2019,02,10,04,01,4.30
2019,02,10,04,02,5.30
2019,02,10,04,03,7.00
2019,02,10,04,04,8.70
2019,02,10,04,05,5.50
2019,02,10,04,06,16.00
2019,02,10,04,07,8.00
2019,02,10,04,08,9.60
2019,02,10,04,09,11.30
2019,02,10,04,10,8.70
2019,02,10,04,11,10.60
2019,02,10,04,12,10.40
2019,02,10,04,13,11.90
2019,02,10,04,14,12.00
2019,02,10,04,15,10.20
2019,02,10,04,16,4.40
2019,02,10,04,17,1.10
2019,02,10,04,18,2.70
2019,02,10,04,19,2.50
2019,02,10,04,20,1.00
2019,02,10,04,21,2.10
2019,02,10,04,22,2.50
2019,02,10,04,23,0.00
2019,02,10,04,24,0.00
2019,02,10,04,25,3.60
2019,02,10,04,26,5.60
2019,02,10,04,27,6.00
2019,02,10,04,28,4.60
2019,02,10,04,29,8.90
2019,02,10,04,30,8.10
2019,02,10,04,31,6.10
2019,02,10,04,32,8.10
2019,02,10,04,33,6.30
2019,02,10,04,34,6.20
2019,02,10,04,35,3.90
2019,02,10,04,36,0.70
2019,02,10,04,37,2.70
2019,02,10,04,38,2.50
2019,02,10,04,39,1.10
2019,02,10,04,40,0.60
2019,02,10,04,41,1.20
2019,02,10,04,42,1.70
2019,02,10,04,43,2.20
2019,02,10,04,44,0.80
2019,02,10,04,45,1.40
2019,02,10,04,46,0.00
2019,02,10,04,47,0.00
2019,02,10,04,48,0.00
2019,02,10,04,49,0.00
2019,02,10,04,50,0.00
2019,02,10,04,51,0.00
2019,02,10,04,52,0.00
2019,02,10,04,53,0.00
2019,02,10,04,54,0.80
2019,02,10,04,55,4.70
2019,02,10,04,56,3.70
2019,02,10,04,57,5.00
2019,02,10,04,58,5.80
2019,02,10,04,59,4.80
2019,02,10,05,00,7.30
2019,02,10,05,01,5.60
2019,02,10,05,02,8.70
2019,02,10,05,03,7.00
2019,02,10,05,04,1.40
2019,02,10,05,05,5.50
2019,02,10,05,06,6.70
2019,02,10,05,07,4.00
2019,02,10,05,08,3.90
2019,02,10,05,09,7.40
2019,02,10,05,10,6.40
2019,02,10,05,11,9.40
2019,02,10,05,12,6.50
2019,02,10,05,13,5.00
2019,02,10,05,14,1.10
2019,02,10,05,15,0.00
2019,02,10,05,16,0.00
2019,02,10,05,17,0.00
2019,02,10,05,18,0.00
2019,02,10,05,19,1.20
2019,02,10,05,20,0.20
2019,02,10,05,21,4.10
2019,02,10,05,22,3.60
2019,02,10,05,23,2.50
2019,02,10,05,24,5.20
2019,02,10,05,25,1.30
2019,02,10,05,26,1.50
2019,02,10,05,27,0.10
2019,02,10,05,28,0.10
2019,02,10,05,29,0.00
2019,02,10,05,30,1.50
2019,02,10,05,31,0.30
2019,02,10,05,32,0.00
2019,02,10,05,33,0.00
2019,02,10,05,34,0.00
2019,02,10,05,35,0.00
2019,02,10,05,36,0.00
2019,02,10,05,37,0.00
2019,02,10,05,38,0.00
2019,02,10,05,39,0.00
2019,02,10,05,40,0.00
2019,02,10,05,41,0.00
2019,02,10,05,42,0.00
2019,02,10,05,43,0.00
2019,02,10,05,44,0.00
2019,02,10,05,45,0.00
2019,02,10,05,46,0.00
2019,02,10,05,47,0.00
2019,02,10,05,48,0.00
2019,02,10,05,49,0.00
2019,02,10,05,50,0.00
2019,02,10,05,51,0.00
2019,02,10,05,52,0.00
2019,02,10,05,53,0.00
2019,02,10,05,54,0.00
2019,02,10,05,55,0.00
2019,02,10,05,56,0.00
2019,02,10,05,57,0.00
2019,02,10,05,58,0.00
2019,02,10,05,59,0.00
2019,02,10,06,00,0.00
2019,02,10,06,01,0.00
2019,02,10,06,02,0.00
2019,02,10,06,03,0.00
2019,02,10,06,04,0.00
2019,02,10,06,05,0.00
2019,02,10,06,06,0.00
2019,02,10,06,07,0.00
2019,02,10,06,08,0.00
2019,02,10,06,09,0.00
2019,02,10,06,10,0.00
2019,02,10,06,11,0.00
2019,02,10,06,12,0.00
2019,02,10,06,13,0.00
2019,02,10,06,14,0.00
2019,02,10,06,15,0.00
2019,02,10,06,16,0.00
2019,02,10,06,17,0.00
2019,02,10,06,18,0.00
2019,02,10,06,19,0.00
2019,02,10,06,20,0.00
2019,02,10,06,21,0.00
2019,02,10,06,22,0.00
2019,02,10,06,23,0.00
2019,02,10,06,24,0.00
2019,02,10,06,25,0.00
2019,02,10,06,26,0.00
2019,02,10,06,27,0.00
2019,02,10,06,28,0.00
2019,02,10,06,29,0.00
2019,02,10,06,30,0.00
2019,02,10,06,31,0.00
2019,02,10,06,32,0.00
2019,02,10,06,33,0.00
2019,02,10,06,34,0.00
2019,02,10,06,35,0.00
2019,02,10,06,36,0.00
2019,02,10,06,37,0.00
2019,02,10,06,38,0.00
2019,02,10,06,39,0.00
2019,02,10,06,40,0.00
2019,02,10,06,41,0.00
2019,02,10,06,42,0.00
2019,02,10,06,43,0.00
2019,02,10,06,44,0.00
2019,02,10,06,45,0.00
2019,02,10,06,46,0.00
2019,02,10,06,47,0.00
2019,02,10,06,48,0.00
2019,02,10,06,49,0.00
2019,02,10,06,50,0.00
2019,02,10,06,51,0.00
2019,02,10,06,52,0.00
2019,02,10,06,53,0.00
2019,02,10,06,54,0.00
2019,02,10,06,55,0.00
2019,02,10,06,56,0.00
2019,02,10,06,57,0.00
2019,02,10,06,58,0.00
2019,02,10,06,59,0.00
2019,02,10,07,00,0.00
2019,02,10,07,01,0.00
2019,02,10,07,02,0.00
2019,02,10,07,03,0.00
2019,02,10,07,04,0.00
2019,02,10,07,05,0.00
2019,02,10,07,06,0.00
2019,02,10,07,07,0.00
2019,02,10,07,08,0.00
2019,02,10,07,09,0.00
2019,02,10,07,10,0.00
2019,02,10,07,11,0.00
2019,02,10,07,12,0.00
2019,02,10,07,13,0.00
2019,02,10,07,14,0.00
2019,02,10,07,15,0.00
2019,02,10,07,16,0.00
2019,02,10,07,17,0.00
2019,02,10,07,18,0.00
2019,02,10,07,19,0.00
2019,02,10,07,20,0.00
2019,02,10,07,21,0.00
2019,02,10,07,22,0.00
2019,02,10,07,23,0.00
2019,02,10,07,24,0.00
2019,02,10,07,25,0.00
2019,02,10,07,26,0.00
2019,02,10,07,27,0.00
2019,02,10,07,28,0.00
2019,02,10,07,29,0.00
2019,02,10,07,30,0.00
2019,02,10,07,31,0.00
2019,02,10,07,32,0.00
2019,02,10,07,33,0.00
2019,02,10,07,34,0.00
2019,02,10,07,35,0.00
2019,02,10,07,36,0.00
2019,02,10,07,37,0.00
2019,02,10,07,38,0.00
2019,02,10,07,39,0.00
2019,02,10,07,40,0.00
2019,02,10,07,41,0.00
2019,02,10,07,42,0.00
2019,02,10,07,43,0.00
2019,02,10,07,44,0.00
2019,02,10,07,45,0.00
2019,02,10,07,46,0.00
2019,02,10,07,47,0.00
2019,02,10,07,48,0.00
2019,02,10,07,49,0.00
2019,02,10,07,50,0.00
2019,02,10,07,51,0.00
2019,02,10,07,52,0.10
2019,02,10,07,53,0.00
2019,02,10,07,54,0.00
2019,02,10,07,55,0.00
2019,02,10,07,56,0.00
2019,02,10,07,57,0.00
2019,02,10,07,58,0.00
2019,02,10,07,59,0.00
2019,02,10,08,00,0.00
2019,02,10,08,01,0.00
2019,02,10,08,02,0.00
2019,02,10,08,03,0.00
2019,02,10,08,04,0.00
2019,02,10,08,05,0.00
2019,02,10,08,06,0.00
2019,02,10,08,07,0.00
2019,02,10,08,08,0.00
2019,02,10,08,09,0.00
2019,02,10,08,10,0.00
2019,02,10,08,11,0.00
2019,02,10,08,12,0.00
2019,02,10,08,13,0.00
2019,02,10,08,14,0.00
2019,02,10,08,15,0.00
2019,02,10,08,16,0.00
2019,02,10,08,17,0.00
2019,02,10,08,18,0.00
2019,02,10,08,19,0.00
2019,02,10,08,20,0.00
2019,02,10,08,21,0.00
2019,02,10,08,22,0.00
2019,02,10,08,23,0.00
2019,02,10,08,24,0.00
2019,02,10,08,25,0.00
2019,02,10,08,26,0.00
2019,02,10,08,27,0.00
2019,02,10,08,28,0.00
2019,02,10,08,29,0.00
2019,02,10,08,30,0.00
2019,02,10,08,31,0.00
2019,02,10,08,32,0.00
2019,02,10,08,33,0.00
2019,02,10,08,34,0.00
2019,02,10,08,35,0.00
2019,02,10,08,36,0.00
2019,02,10,08,37,0.00
2019,02,10,08,38,0.00
2019,02,10,08,39,0.00
2019,02,10,08,40,0.00
2019,02,10,08,41,0.00
2019,02,10,08,42,0.00
2019,02,10,08,43,0.00
2019,02,10,08,44,0.00
2019,02,10,08,45,0.00
2019,02,10,08,46,0.00
2019,02,10,08,47,0.00
2019,02,10,08,48,0.00
2019,02,10,08,49,0.00
2019,02,10,08,50,0.00
2019,02,10,08,51,0.00
2019,02,10,08,52,0.00
2019,02,10,08,53,0.00
2019,02,10,08,54,0.00
2019,02,10,08,55,0.00
2019,02,10,08,56,0.00
2019,02,10,08,57,0.00
2019,02,10,08,58,0.00
2019,02,10,08,59,0.00
2019,02,10,09,00,0.00
2019,02,10,09,01,0.00
2019,02,10,09,02,0.00
2019,02,10,09,03,0.00
2019,02,10,09,04,0.00
2019,02,10,09,05,0.00
2019,02,10,09,06,0.00
2019,02,10,09,07,0.00
2019,02,10,09,08,0.00
2019,02,10,09,09,0.00
2019,02,10,09,10,0.00
2019,02,10,09,11,0.00
2019,02,10,09,12,0.00
2019,02,10,09,13,3.30
2019,02,10,09,14,4.60
2019,02,10,09,15,3.80
2019,02,10,09,16,2.30
2019,02,10,09,17,0.40
2019,02,10,09,18,1.50
2019,02,10,09,19,0.00
2019,02,10,09,20,0.00
2019,02,10,09,21,0.00
2019,02,10,09,22,0.00
2019,02,10,09,23,0.00
2019,02,10,09,24,0.00
2019,02,10,09,25,0.00
2019,02,10,09,26,0.00
2019,02,10,09,27,0.00
2019,02,10,09,28,0.00
2019,02,10,09,29,0.00
2019,02,10,09,30,0.00
2019,02,10,09,31,0.10
2019,02,10,09,32,0.20
2019,02,10,09,33,0.00
2019,02,10,09,34,0.00
2019,02,10,09,35,0.00
2019,02,10,09,36,0.00
2019,02,10,09,37,0.00
2019,02,10,09,38,0.00
2019,02,10,09,39,0.00
2019,02,10,09,40,0.00
2019,02,10,09,41,0.00
2019,02,10,09,42,0.00
2019,02,10,09,43,0.00
2019,02,10,09,44,0.00
2019,02,10,09,45,0.00
2019,02,10,09,46,0.00
2019,02,10,09,47,0.00
2019,02,10,09,48,0.00
2019,02,10,09,49,0.00
2019,02,10,09,50,0.00
2019,02,10,09,51,0.00
2019,02,10,09,52,0.00
2019,02,10,09,53,0.00
2019,02,10,09,54,0.00
2019,02,10,09,55,0.00
2019,02,10,09,56,0.00
2019,02,10,09,57,0.00
2019,02,10,09,58,0.00
2019,02,10,09,59,0.00
2019,02,10,10,00,0.00
2019,02,10,10,01,0.00
2019,02,10,10,02,0.00
2019,02,10,10,03,0.00
2019,02,10,10,04,0.00
2019,02,10,10,05,2.20
2019,02,10,10,06,0.00
2019,02,10,10,07,0.00
2019,02,10,10,08,0.00
2019,02,10,10,09,0.10
2019,02,10,10,10,0.50
2019,02,10,10,11,0.00
2019,02,10,10,12,0.00
2019,02,10,10,13,0.00
2019,02,10,10,14,0.00
2019,02,10,10,15,0.00
2019,02,10,10,16,0.10
2019,02,10,10,17,1.20
2019,02,10,10,18,2.80
2019,02,10,10,19,4.80
2019,02,10,10,20,0.10
2019,02,10,10,21,0.10
2019,02,10,10,22,2.20
2019,02,10,10,23,0.50
2019,02,10,10,24,1.30
2019,02,10,10,25,0.00
2019,02,10,10,26,0.00
2019,02,10,10,27,0.00
2019,02,10,10,28,0.00
2019,02,10,10,29,0.00
2019,02,10,10,30,0.00
2019,02,10,10,31,0.00
2019,02,10,10,32,0.00
2019,02,10,10,33,0.00
2019,02,10,10,34,0.00
2019,02,10,10,35,0.00
2019,02,10,10,36,0.10
2019,02,10,10,37,1.10
2019,02,10,10,38,6.80
2019,02,10,10,39,8.40
2019,02,10,10,40,6.40
2019,02,10,10,41,2.90
2019,02,10,10,42,8.50
2019,02,10,10,43,9.40
2019,02,10,10,44,6.20
2019,02,10,10,45,7.70
2019,02,10,10,46,6.80
2019,02,10,10,47,5.70
2019,02,10,10,48,7.30
2019,02,10,10,49,6.70
2019,02,10,10,50,5.40
2019,02,10,10,51,2.40
2019,02,10,10,52,6.10
2019,02,10,10,53,3.20
2019,02,10,10,54,1.00
2019,02,10,10,55,5.10
2019,02,10,10,56,5.50
2019,02,10,10,57,5.70
2019,02,10,10,58,2.90
2019,02,10,10,59,3.00
2019,02,10,11,00,7.00
2019,02,10,11,01,9.70
2019,02,10,11,02,11.30
2019,02,10,11,03,8.00
2019,02,10,11,04,5.70
2019,02,10,11,05,4.10
2019,02,10,11,06,5.70
2019,02,10,11,07,5.50
2019,02,10,11,08,12.10
2019,02,10,11,09,9.30
2019,02,10,11,10,10.10
2019,02,10,11,11,6.20
2019,02,10,11,12,7.70
2019,02,10,11,13,10.10
2019,02,10,11,14,4.60
2019,02,10,11,15,9.90
2019,02,10,11,16,11.10
2019,02,10,11,17,13.00
2019,02,10,11,18,7.70
2019,02,10,11,19,6.80
2019,02,10,11,20,7.50
2019,02,10,11,21,11.40
2019,02,10,11,22,9.60
2019,02,10,11,23,13.20
2019,02,10,11,24,11.50
2019,02,10,11,25,13.40
2019,02,10,11,26,9.90
2019,02,10,11,27,10.60
2019,02,10,11,28,15.60
2019,02,10,11,29,22.50
2019,02,10,11,30,18.30
2019,02,10,11,31,15.50
2019,02,10,11,32,12.50
2019,02,10,11,33,13.00
2019,02,10,11,34,9.50
2019,02,10,11,35,8.90
2019,02,10,11,36,6.70
2019,02,10,11,37,8.30
2019,02,10,11,38,12.90
2019,02,10,11,39,12.90
2019,02,10,11,40,7.60
2019,02,10,11,41,8.20
2019,02,10,11,42,9.70
2019,02,10,11,43,10.10
2019,02,10,11,44,11.50
2019,02,10,11,45,11.70
2019,02,10,11,46,17.70
2019,02,10,11,47,17.00
2019,02,10,11,48,12.10
2019,02,10,11,49,11.60
2019,02,10,11,50,12.10
2019,02,10,11,51,15.70
2019,02,10,11,52,16.20
2019,02,10,11,53,18.00
2019,02,10,11,54,13.20
2019,02,10,11,55,14.30
2019,02,10,11,56,14.80
2019,02,10,11,57,12.20
2019,02,10,11,58,13.70
2019,02,10,11,59,16.20
2019,02,10,12,00,12.50
2019,02,10,12,01,15.20
2019,02,10,12,02,15.40
2019,02,10,12,03,8.90
2019,02,10,12,04,8.10
2019,02,10,12,05,16.70
2019,02,10,12,06,17.60
2019,02,10,12,07,15.20
2019,02,10,12,08,15.50
2019,02,10,12,09,15.30
2019,02,10,12,10,14.30
2019,02,10,12,11,8.00
2019,02,10,12,12,11.80
2019,02,10,12,13,15.00
2019,02,10,12,14,12.40
2019,02,10,12,15,10.70
2019,02,10,12,16,11.60
2019,02,10,12,17,14.30
2019,02,10,12,18,16.60
2019,02,10,12,19,8.90
2019,02,10,12,20,13.60
2019,02,10,12,21,7.30
2019,02,10,12,22,3.80
2019,02,10,12,23,6.60
2019,02,10,12,24,13.70
2019,02,10,12,25,14.00
2019,02,10,12,26,13.80
2019,02,10,12,27,15.80
2019,02,10,12,28,11.50
2019,02,10,12,29,15.30
2019,02,10,12,30,18.10
2019,02,10,12,31,12.30
2019,02,10,12,32,11.50
2019,02,10,12,33,18.60
2019,02,10,12,34,16.60
2019,02,10,12,35,19.20
2019,02,10,12,36,18.00
2019,02,10,12,37,22.70
2019,02,10,12,38,10.30
2019,02,10,12,39,8.70
2019,02,10,12,40,8.70
2019,02,10,12,41,11.10
2019,02,10,12,42,14.40
2019,02,10,12,43,14.30
2019,02,10,12,44,14.70
2019,02,10,12,45,14.70
2019,02,10,12,46,16.50
2019,02,10,12,47,18.10
2019,02,10,12,48,15.40
2019,02,10,12,49,14.60
2019,02,10,12,50,14.80
2019,02,10,12,51,17.90
2019,02,10,12,52,13.50
2019,02,10,12,53,12.90
2019,02,10,12,54,11.60
2019,02,10,12,55,12.80
2019,02,10,12,56,13.40
2019,02,10,12,57,17.80
2019,02,10,12,58,19.30
2019,02,10,12,59,17.30
2019,02,10,13,00,16.20
2019,02,10,13,01,21.60
2019,02,10,13,02,16.00
2019,02,10,13,03,16.80
2019,02,10,13,04,15.20
2019,02,10,13,05,14.80
2019,02,10,13,06,12.30
2019,02,10,13,07,11.60
2019,02,10,13,08,13.30
2019,02,10,13,09,14.50
2019,02,10,13,10,12.60
2019,02,10,13,11,14.10
2019,02,10,13,12,13.20
2019,02,10,13,13,21.30
2019,02,10,13,14,21.40
2019,02,10,13,15,19.20
2019,02,10,13,16,16.80
2019,02,10,13,17,18.70
2019,02,10,13,18,17.50
2019,02,10,13,19,19.20
2019,02,10,13,20,21.30
2019,02,10,13,21,17.50
2019,02,10,13,22,21.70
2019,02,10,13,23,12.10
2019,02,10,13,24,12.40
2019,02,10,13,25,19.90
2019,02,10,13,26,19.40
2019,02,10,13,27,18.70
2019,02,10,13,28,19.30
2019,02,10,13,29,26.00
2019,02,10,13,30,21.00
2019,02,10,13,31,23.90
2019,02,10,13,32,18.50
2019,02,10,13,33,15.10
2019,02,10,13,34,21.90
2019,02,10,13,35,22.10
2019,02,10,13,36,25.90
2019,02,10,13,37,24.70
2019,02,10,13,38,18.40
2019,02,10,13,39,16.20
2019,02,10,13,40,24.50
2019,02,10,13,41,23.20
2019,02,10,13,42,21.70
2019,02,10,13,43,24.00
2019,02,10,13,44,25.60
2019,02,10,13,45,19.50
2019,02,10,13,46,22.20
2019,02,10,13,47,17.50
2019,02,10,13,48,17.40
2019,02,10,13,49,25.00
2019,02,10,13,50,13.60
2019,02,10,13,51,21.00
2019,02,10,13,52,18.20
2019,02,10,13,53,20.60
2019,02,10,13,54,18.40
2019,02,10,13,55,22.00
2019,02,10,13,56,23.30
2019,02,10,13,57,23.90
2019,02,10,13,58,24.40
2019,02,10,13,59,25.60
2019,02,10,14,00,22.50
2019,02,10,14,01,16.00
2019,02,10,14,02,13.00
2019,02,10,14,03,8.50
2019,02,10,14,04,23.10
2019,02,10,14,05,20.40
2019,02,10,14,06,21.30
2019,02,10,14,07,15.10
2019,02,10,14,08,25.20
2019,02,10,14,09,18.10
2019,02,10,14,10,27.70
2019,02,10,14,11,26.00
2019,02,10,14,12,24.40
2019,02,10,14,13,32.60
2019,02,10,14,14,27.40
2019,02,10,14,15,17.80
2019,02,10,14,16,17.50
2019,02,10,14,17,22.20
2019,02,10,14,18,30.20
2019,02,10,14,19,26.30
2019,02,10,14,20,26.00
2019,02,10,14,21,24.20
2019,02,10,14,22,20.40
2019,02,10,14,23,15.60
2019,02,10,14,24,13.20
2019,02,10,14,25,22.70
2019,02,10,14,26,27.30
2019,02,10,14,27,15.60
2019,02,10,14,28,14.40
2019,02,10,14,29,13.90
2019,02,10,14,30,16.60
2019,02,10,14,31,17.00
2019,02,10,14,32,27.40
2019,02,10,14,33,24.70
2019,02,10,14,34,20.90
2019,02,10,14,35,19.50
2019,02,10,14,36,17.60
2019,02,10,14,37,20.40
2019,02,10,14,38,17.60
2019,02,10,14,39,26.50
2019,02,10,14,40,16.70
2019,02,10,14,41,15.20
2019,02,10,14,42,24.10
2019,02,10,14,43,20.70
2019,02,10,14,44,23.20
2019,02,10,14,45,28.60
2019,02,10,14,46,20.90
2019,02,10,14,47,21.10
2019,02,10,14,48,18.80
2019,02,10,14,49,17.30
2019,02,10,14,50,9.30
2019,02,10,14,51,17.20
2019,02,10,14,52,23.30
2019,02,10,14,53,22.50
2019,02,10,14,54,22.30
2019,02,10,14,55,22.00
2019,02,10,14,56,21.10
2019,02,10,14,57,25.30
2019,02,10,14,58,19.50
2019,02,10,14,59,23.20
2019,02,10,15,00,19.60
2019,02,10,15,01,11.90
2019,02,10,15,02,27.40
2019,02,10,15,03,22.20
2019,02,10,15,04,29.60
2019,02,10,15,05,26.80
2019,02,10,15,06,22.10
2019,02,10,15,07,25.20
2019,02,10,15,08,21.10
2019,02,10,15,09,28.50
2019,02,10,15,10,26.40
2019,02,10,15,11,19.20
2019,02,10,15,12,14.80
2019,02,10,15,13,25.50
2019,02,10,15,14,13.40
2019,02,10,15,15,25.80
2019,02,10,15,16,23.90
2019,02,10,15,17,26.00
2019,02,10,15,18,20.10
2019,02,10,15,19,19.50
2019,02,10,15,20,11.70
2019,02,10,15,21,17.10
2019,02,10,15,22,13.90
2019,02,10,15,23,17.70
2019,02,10,15,24,18.40
2019,02,10,15,25,20.10
2019,02,10,15,26,16.00
2019,02,10,15,27,21.20
2019,02,10,15,28,22.40
2019,02,10,15,29,18.20
2019,02,10,15,30,22.80
2019,02,10,15,31,19.70
2019,02,10,15,32,16.00
2019,02,10,15,33,18.70
2019,02,10,15,34,19.40
2019,02,10,15,35,19.10
2019,02,10,15,36,19.10
2019,02,10,15,37,20.90
2019,02,10,15,38,17.10
2019,02,10,15,39,18.80
2019,02,10,15,40,17.90
2019,02,10,15,41,18.50
2019,02,10,15,42,22.10
2019,02,10,15,43,23.70
2019,02,10,15,44,25.50
2019,02,10,15,45,16.70
2019,02,10,15,46,18.60
2019,02,10,15,47,24.70
2019,02,10,15,48,27.10
2019,02,10,15,49,21.40
2019,02,10,15,50,19.00
2019,02,10,15,51,30.10
2019,02,10,15,52,21.60
2019,02,10,15,53,21.00
2019,02,10,15,54,28.60
2019,02,10,15,55,21.60
2019,02,10,15,56,25.30
2019,02,10,15,57,22.90
2019,02,10,15,58,18.30
2019,02,10,15,59,27.80
2019,02,10,16,00,27.10
2019,02,10,16,01,20.30
2019,02,10,16,02,22.20
2019,02,10,16,03,24.10
2019,02,10,16,04,22.40
2019,02,10,16,05,29.00
2019,02,10,16,06,26.00
2019,02,10,16,07,27.00
2019,02,10,16,08,26.80
2019,02,10,16,09,23.50
2019,02,10,16,10,21.10
2019,02,10,16,11,24.70
2019,02,10,16,12,25.30
2019,02,10,16,13,30.90
2019,02,10,16,14,24.60
2019,02,10,16,15,29.50
2019,02,10,16,16,24.70
2019,02,10,16,17,26.20
2019,02,10,16,18,21.60
2019,02,10,16,19,28.80
2019,02,10,16,20,21.00
2019,02,10,16,21,21.80
2019,02,10,16,22,20.40
2019,02,10,16,23,20.50
2019,02,10,16,24,17.50
2019,02,10,16,25,22.00
2019,02,10,16,26,28.00
2019,02,10,16,27,27.70
2019,02,10,16,28,26.60
2019,02,10,16,29,19.50
2019,02,10,16,30,19.40
2019,02,10,16,31,23.10
2019,02,10,16,32,20.40
2019,02,10,16,33,18.80
2019,02,10,16,34,11.20
2019,02,10,16,35,18.00
2019,02,10,16,36,10.40
2019,02,10,16,37,14.60
2019,02,10,16,38,14.80
2019,02,10,16,39,11.60
2019,02,10,16,40,19.20
2019,02,10,16,41,24.10
2019,02,10,16,42,19.00
2019,02,10,16,43,11.20
2019,02,10,16,44,17.60
2019,02,10,16,45,16.40
2019,02,10,16,46,26.00
2019,02,10,16,47,15.50
2019,02,10,16,48,15.90
2019,02,10,16,49,19.50
2019,02,10,16,50,13.70
2019,02,10,16,51,22.70
2019,02,10,16,52,24.90
2019,02,10,16,53,20.60
2019,02,10,16,54,17.80
2019,02,10,16,55,20.80
2019,02,10,16,56,18.00
2019,02,10,16,57,22.30
2019,02,10,16,58,17.60
2019,02,10,16,59,23.00
2019,02,10,17,00,20.70
2019,02,10,17,01,16.90
2019,02,10,17,02,17.50
2019,02,10,17,03,17.30
2019,02,10,17,04,18.30
2019,02,10,17,05,21.80
2019,02,10,17,06,16.00
2019,02,10,17,07,17.80
2019,02,10,17,08,14.00
2019,02,10,17,09,17.90
2019,02,10,17,10,16.20
2019,02,10,17,11,21.30
2019,02,10,17,12,13.90
2019,02,10,17,13,16.00
2019,02,10,17,14,10.50
2019,02,10,17,15,10.30
2019,02,10,17,16,9.90
2019,02,10,17,17,14.80
2019,02,10,17,18,9.60
2019,02,10,17,19,15.00
2019,02,10,17,20,8.40
2019,02,10,17,21,5.50
2019,02,10,17,22,14.50
2019,02,10,17,23,15.40
2019,02,10,17,24,9.70
2019,02,10,17,25,10.70
2019,02,10,17,26,9.60
2019,02,10,17,27,8.60
2019,02,10,17,28,12.40
2019,02,10,17,29,10.30
2019,02,10,17,30,16.10
2019,02,10,17,31,14.30
2019,02,10,17,32,10.70
2019,02,10,17,33,7.00
2019,02,10,17,34,5.30
2019,02,10,17,35,10.40
2019,02,10,17,36,9.40
2019,02,10,17,37,7.30
2019,02,10,17,38,14.30
2019,02,10,17,39,7.20
2019,02,10,17,40,8.80
2019,02,10,17,41,9.50
2019,02,10,17,42,8.00